Location: Alsip
(41.6689°N, 87.7387°W)
Time: 13:57:13
(UTC+00:00)

DELTA 2 R/B (1) - Pass Details

Date: 14 July 2020
Orbit: 790 x 803 km, 39.6° (Epoch: 12 August)

Event Time Altitude Azimuth Distance (km) Brightness Sun altitude
Rises 02:44:33 0° 269° (W) 3,281 7.5 -12.6°
Reaches altitude 10° 02:47:02 10° 267° (W) 2,353 6.6 -13.0°
Maximum altitude 02:52:34 72° 184° (S) 834 3.5 -13.7°
Enters shadow 02:57:14 15° 102° (ESE) 2,041 5.2 -14.3°
